Regional Weather Roundup
Issued by NWS Northern Indiana

Home | Current Version | Previous Version | Graphics & Text | Print | Product List | Glossary On
Versions: 1 2 3 4 5 6 7 8 9 10 11 12 13 14 15 16 17 18 19 20 21 22 23 24 25 26 27 28 29 30 31 32 33 34 35 36 37 38 39 40 41 42 43 44 45 46 47 48 49 50
000
ASUS43 KIWX 171800
RWRIWX

KIWX WEATHER ROUNDUP
NATIONAL WEATHER SERVICE NORTHERN INDIANA
100 PM EST SUN DEC 17 2017

NOTE: "FAIR" INDICATES FEW OR NO CLOUDS BELOW 12,000 FEET WITH NO
SIGNIFICANT WEATHER AND/OR OBSTRUCTIONS TO VISIBILITY.

* THESE STATIONS ARE NOT UNDER NWS QUALITY CONTROL. THEY ALSO MAY NOT
  REPORT WEATHER SUCH AS PRECIPITATION OR FOG.

INZ001>027-171900-
NORTHERN INDIANA

CITY           SKY/WX    TMP DP  RH WIND       PRES   REMARKS
GARY*          CLOUDY    39  30  70 S7        30.05F
KNOX*          CLOUDY    39  32  75 S8        30.05F
SOUTH BEND     MOSUNNY   34  31  88 SE8       30.05F WCI  27
6HR MIN TEMP:  27; 6HR MAX TEMP:  34;

ELKHART*       CLOUDY    34  28  80 SE6       30.05F WCI  29
GOSHEN         CLOUDY    35  30  82 SE7       30.06F WCI  29
6HR MIN TEMP:  27; 6HR MAX TEMP:  35;

MONTICELLO*    DRIZZLE   40  33  75 S9        30.07F
6HR MIN TEMP:  33; 6HR MAX TEMP:  41;

WARSAW*        CLOUDY    37  32  81 S3        30.07F
AUBURN*        MOSUNNY   32  32 100 CALM      30.10F FOG
FORT WAYNE     CLOUDY    33  30  88 CALM      30.10F
6HR MIN TEMP:  26; 6HR MAX TEMP:  33;

PERU/GRISSOM   PTSUNNY   41  34  77 SW7       30.07F
6HR MIN TEMP:  33; 6HR MAX TEMP:  41; 6HR PCP: TRACE;


$$
INZ028>050-171900-
CENTRAL INDIANA

CITY           SKY/WX    TMP DP  RH WIND       PRES   REMARKS
LAFAYETTE      LGT RAIN  40  35  83 CALM      30.08F
6HR MIN TEMP:  36; 6HR MAX TEMP:  40; 6HR PCP:  0.01;

KOKOMO*        LGT RAIN  40  34  79 SW6       30.09F
6HR MIN TEMP:  33; 6HR MAX TEMP:  40; 6HR PCP: TRACE;

MUNCIE*        CLOUDY    42  32  67 SW9       30.10S
6HR MIN TEMP:  38; 6HR MAX TEMP:  43;

INDIANAPOLIS   CLOUDY    42  36  79 SW8       30.10F
6HR MIN TEMP:  37; 6HR MAX TEMP:  43; 6HR PCP:  0.02;


$$
MIZ043>046-050>051-056>058-064>065-071>073-077>080-171900-
SOUTHWEST LOWER MICHIGAN

CITY           SKY/WX    TMP DP  RH WIND       PRES   REMARKS
BATTLE CREEK   CLOUDY    32  29  88 SE9       30.07F FOG     WCI  24
6HR MIN TEMP:  27; 6HR MAX TEMP:  32;

BENTON HARBOR  CLOUDY    34  27  75 SE7       30.05F WCI  28
6HR MIN TEMP:  26; 6HR MAX TEMP:  34;

COLDWATER*     CLOUDY    31  29  94 SE8       30.08F FOG     WCI  23
6HR MIN TEMP:  27; 6HR MAX TEMP:  31;

HILLSDALE*     CLOUDY    30  30 100 E6        30.06F FOG     WCI  24
HOLLAND        CLOUDY    28  25  88 E9        30.07F FOG     WCI  19
6HR MIN TEMP:  23; 6HR MAX TEMP:  28;

GRAND RAPIDS   CLOUDY    27  25  92 E12       30.07F FOG     WCI  17
6HR MIN TEMP:  22; 6HR MAX TEMP:  27;

KALAMAZOO      CLOUDY    31  26  82 SE7       30.08F HAZE    WCI  24
6HR MIN TEMP:  27; 6HR MAX TEMP:  31;

STURGIS*       CLOUDY    32  30  91 SE9       30.06F FOG     WCI  24
6HR MIN TEMP:  27; 6HR MAX TEMP:  32;

THREE RIVERS*  CLOUDY    32  29  89 E5        30.07F FOG     WCI  27
6HR MIN TEMP:  27; 6HR MAX TEMP:  32;


$$
OHZ001>008-015>018-024>025-171900-
NORTHWEST OHIO

CITY           SKY/WX    TMP DP  RH WIND       PRES   REMARKS
DEFIANCE       CLOUDY    32  30  92 VRB5      30.11F FOG     WCI  27
6HR MIN TEMP:  30; 6HR MAX TEMP:  32;

FINDLAY        CLOUDY    38  31  76 S3        30.09F
6HR MIN TEMP:  27; 6HR MAX TEMP:  38;

TOLEDO EXPRESS CLOUDY    35  32  88 E3        30.10F FOG
6HR MIN TEMP:  29; 6HR MAX TEMP:  35;

TOLEDO METCALF MOSUNNY   34  29  82 E5        30.11F HAZE    WCI  30
6HR MIN TEMP:  29; 6HR MAX TEMP:  34;

LIMA           CLOUDY    38  32  79 S7        30.08F
6HR MIN TEMP:  32; 6HR MAX TEMP:  38;


$$
AND FOR LAKE MICHIGAN COASTAL AND OPEN LAKE BUOY OBSERVATIONS

STATION/POSITION TEMP    WIND        PRES    VSBY  WAVE
                 AIR SEA DIR/SP/G                  HT/PER
                 (F)     (DEG/KT/KT) (MB)    (MI)  (FT/S)
CALUMET HARBOR    36     200/  5/  6 1016.5F
MICHIGAN CITY     37     160/  6/  8   N/A
BURNS HARBOR      37     190/  7/  9 1017.6F
SAINT JOSEPH      33     100/  3/  7 1018.6

$$
&&




USA.gov is the U.S. government's official web portal to all federal, state and local government web resources and services.